Location: Borderline Observatory
(42.7345°N, 72.8696°W)
Time: 04:39:11
(UTC-04:00)

Daily predictions for brighter satellites

Satellite Brightness Start Highest point End
(mag) Time Altitude Azimuth Time Altitude Azimuth Time Altitude Azimuth
Okean 2 4.2 00:00:03 10° N 00:03:11 49° N 00:03:11 49° N
Cosmos 2263 4.4 00:06:35 56° E 00:06:35 56° E 00:11:34 10° NNE
Lacrosse 5 rocket 3.0 00:08:17 27° NNE 00:08:17 27° NNE 00:10:12 10° NE
Genesis I 4.5 00:08:21 41° N 00:08:21 41° N 00:11:21 10° NNE
Iridium 4 Rocket 4.4 00:11:29 10° NNW 00:17:06 48° W 00:17:57 44° WSW
Lacrosse 5 2.2 00:17:36 61° WNW 00:18:00 63° NW 00:23:05 10° NE
Cosmos 1503 Rocket 4.4 00:17:01 10° NNW 00:21:42 52° W 00:21:42 52° W
Cosmos 1544 Rocket 4.4 00:23:18 48° NNW 00:23:18 48° NNW 00:26:43 10° N
Cosmos 1346 Rocket 4.3 00:21:11 10° N 00:23:36 34° NNE 00:23:36 34° NNE
Cosmos 1833 4.5 00:21:54 10° NNW 00:27:27 56° ENE 00:27:51 55° E
CZ-4B R/B 4.0 00:31:00 19° N 00:31:00 19° N 00:32:02 10° N
Cosmos 44 Rocket 4.5 00:25:41 10° NNW 00:30:27 37° NE 00:31:11 35° ENE
NOSS 3-1 (A) 4.1 00:27:35 10° NW 00:35:04 60° WSW 00:36:14 55° SSW
Landsat 5 4.4 00:36:44 49° N 00:36:44 49° N 00:39:51 10° NNW
Cosmos 1447 Rocket 4.3 00:33:26 10° N 00:39:36 77° W 00:39:58 74° SW
CZ-2C R/B 3.9 00:39:55 37° ENE 00:39:59 37° ENE 00:44:28 10° N
GP-B 4.0 00:36:40 10° N 00:39:57 44° NE 00:39:57 44° NE
Cosmos 968 Rocket 4.0 00:37:53 10° N 00:42:59 51° ENE 00:42:59 51° ENE
Cosmos 2369 Rocket 2.7 00:42:12 47° W 00:43:03 51° WNW 00:48:33 10° NNE
BREEZE-M DEB (TANK) 4.5 00:30:15 10° WNW 00:43:54 50° N 00:47:50 10° ENE
H-2A R/B 3.3 00:44:23 10° N 00:48:06 52° NNW 00:48:06 52° NNW
CZ-2C R/B 2.9 00:47:12 10° NNE 00:51:53 59° ENE 00:51:53 59° ENE
Cosmos 1975 4.2 00:54:23 38° N 00:54:23 38° N 00:56:59 10° N
Cosmos 2100 Rocket 3.9 00:52:43 77° SSE 00:53:10 83° E 00:59:34 10° N
Cosmos 2219 3.8 00:48:43 10° NNW 00:54:10 48° ENE 00:54:56 45° E
MOS 1-B Rocket 3.9 00:55:20 71° SW 00:55:44 74° WSW 01:02:34 10° NNW
ATLAS 2AS CENTAUR R/B 3.0 00:48:23 10° NW 00:56:34 83° NE 00:58:44 53° SE
Cosmos 1066 Rocket 4.2 00:51:39 10° N 00:56:49 65° ENE 00:56:49 65° ENE
USA 234 4.5 00:59:43 10° NE 01:05:41 39° NNW 01:11:38 10° W
Cosmos 1818 3.7 01:06:45 68° WNW 01:06:49 68° NW 01:12:18 10° NNE
Cosmos 2061 Rocket 3.9 01:08:13 75° SW 01:08:46 83° W 01:15:14 10° N
Cosmos 1459 Rocket 3.8 01:09:16 77° WSW 01:09:35 79° W 01:15:42 10° N
Cosmos 1656 Rocket 4.0 01:10:24 53° E 01:10:24 53° E 01:15:24 10° NNE
Cosmos 1241 Rocket 4.4 01:05:04 10° NNW 01:11:35 88° WSW 01:12:10 76° SSE
Cosmos 2016 Rocket 3.8 01:11:31 76° SE 01:11:47 78° E 01:17:54 10° N
Cosmos 1943 Rocket 2.3 01:18:38 62° WNW 01:18:50 62° WNW 01:24:24 10° NNE
Cosmos 1802 Rocket 3.8 01:19:15 74° SW 01:19:40 78° W 01:26:00 10° N
Cosmos 1777 Rocket 4.1 01:20:39 10° NNW 01:25:40 72° NE 01:25:40 72° NE
Cosmos 2173 Rocket 4.2 01:29:53 54° WSW 01:30:32 57° W 01:36:48 10° N
ISS -0.3 01:29:17 10° NW 01:34:59 - ENE 01:30:09 14° NNW
Cosmos 1864 Rocket 4.4 01:31:42 69° SE 01:32:17 74° E 01:38:30 10° NNE
Lacrosse 5 rocket 4.1 01:44:46 10° NW 01:46:33 13° NNW 01:48:21 10° N
Cosmos 1725 Rocket 3.8 01:47:31 74° SSW 01:48:06 83° W 01:54:19 10° N
Cosmos 2228 3.8 01:52:06 46° ENE 01:52:06 46° ENE 01:55:32 10° NNE
Cosmos 1816 Rocket 4.4 01:45:12 10° N 01:51:31 82° E 01:52:30 65° SSE
Tsikada Rocket 3.9 01:54:09 10° NNW 02:00:25 69° W 02:01:06 64° SW
SeaSat 1 2.4 02:01:12 80° E 02:01:18 81° ENE 02:06:15 10° NNW
Lacrosse 5 4.2 01:57:58 10° WNW 02:01:50 21° NNW 02:05:44 10° NNE
SL-16 R/B 4.5 02:13:56 10° ESE 02:18:45 25° ENE 02:23:35 10° N
Cosmos 1707 4.5 02:16:28 10° NNE 02:19:51 27° ENE 02:20:28 25° E
CZ-2C R/B 4.4 02:20:59 24° WNW 02:20:59 24° WNW 02:24:01 10° NW
Cosmos 1898 Rocket 4.1 02:19:49 10° NNW 02:25:04 54° ENE 02:27:20 32° SE
Cosmos 1570 Rocket 4.3 02:24:56 53° W 02:25:27 56° WNW 02:30:43 10° NNE
Cosmos 1812 Rocket 3.9 02:25:54 56° E 02:25:59 56° E 02:30:22 10° NNE
NOSS 3-3 (A) 4.4 02:24:51 41° WSW 02:26:52 57° NW 02:33:34 10° NNE
NOSS 3-3 (C) 4.4 02:24:57 41° WSW 02:26:57 57° NW 02:33:38 10° NNE
Cosmos 2058 Rocket 3.9 02:27:44 40° WNW 02:27:44 40° WNW 02:31:29 10° N
PSLV R/B 3.7 02:22:55 10° N 02:27:12 68° WNW 02:27:12 68° WNW
Cosmos 972 Rocket 3.8 02:22:41 10° NNW 02:27:40 90° ESE 02:28:11 73° SSE
Cosmos 1697 Rocket 4.2 02:26:52 21° SE 02:28:34 25° ESE 02:33:05 10° NE
Cosmos 2082 3.8 02:25:16 10° NNW 02:30:56 74° ENE 02:33:02 40° SE
IRS-P3 4.1 02:26:34 10° NNE 02:31:56 75° ESE 02:32:49 61° SSE
CZ-2C R/B 4.4 02:28:42 10° NNW 02:32:13 18° WNW 02:33:24 17° WNW
Cosmos 1340 4.5 02:29:02 10° NNW 02:30:53 24° NW 02:30:53 24° NW
Cosmos 2346 Rocket 4.4 02:27:24 10° NNW 02:33:40 72° W 02:35:02 55° SSW
Meteor 2-9 Rocket 4.5 02:33:46 51° WSW 02:34:40 57° WNW 02:40:23 10° N
Cosmos 1937 Rocket 4.3 02:31:27 10° N 02:36:29 48° ENE 02:39:38 21° SE
Cosmos 1980 Rocket 4.2 02:34:36 13° SE 02:37:13 17° E 02:40:48 10° ENE
UNK 4.4 02:32:48 10° W 02:40:14 38° NNW 02:43:03 10° NE
Cosmos 2227 Rocket 2.1 02:35:31 10° NNW 02:41:14 87° WSW 02:42:57 47° SSE
ATLAS 2AS CENTAUR R/B 4.2 02:40:46 10° WNW 02:46:07 23° W 02:46:07 23° W
ATLAS CENTAUR R/B 2.1 02:48:10 52° SSE 02:48:51 56° ESE 02:53:46 10° NE
Meteor 2-5 Rocket 3.8 02:44:34 10° N 02:50:29 84° E 02:52:51 39° SSE
Cosmos 1464 Rocket 3.9 02:49:34 45° S 02:51:41 88° E 02:58:04 10° N
ARIANE 5 R/B 3.8 02:47:35 10° NNE 02:52:15 34° E 02:54:37 23° SE
Resurs 1-4 Rocket 3.7 02:50:04 10° NE 02:54:33 28° E 02:57:36 17° SE
SL-08 R/B 3.1 02:54:19 66° SSW 02:54:49 73° WSW 02:59:29 10° NNW
ADEOS 3.9 02:50:14 10° NNE 02:55:24 58° E 02:57:07 39° SSE
Cosmos 2278 3.8 02:58:52 48° SW 03:00:22 67° WNW 03:06:02 10° NNE
Cosmos 2369 3.7 03:00:27 49° SW 03:02:00 74° WNW 03:07:42 10° NNE
Okean 3 Rocket 3.6 02:58:06 10° N 03:02:32 77° E 03:03:33 52° SSE
Cosmos 2297 Rocket 2.1 02:56:52 10° NNW 03:02:33 83° WSW 03:05:19 32° SSE
NPP 3.7 02:58:31 10° N 03:03:53 69° WNW 03:05:21 47° SW
ISS -2.8 03:08:08 49° NNW 03:08:40 58° NNE 03:11:53 10° ESE
Spot 4 Rocket 4.2 03:05:10 10° NNE 03:10:21 70° ESE 03:12:20 38° S
Cosmos 972 4.3 03:08:36 10° NNW 03:13:27 67° WSW 03:14:51 45° SSW
BREEZE-M DEB (TANK) 3.1 03:12:28 35° WSW 03:14:42 85° NNW 03:17:34 10° ENE
Cosmos 405 Rocket 3.0 03:10:53 10° NNW 03:14:45 52° W 03:14:45 52° W
CBERS-1 4.2 03:12:58 10° N 03:18:02 59° WNW 03:19:33 41° SW
Cosmos 1814 Rocket 4.0 03:16:25 44° SSW 03:18:10 78° WNW 03:23:34 10° NNE
OE (NEXTSAT) 4.5 03:18:22 65° SE 03:18:22 65° SE 03:21:49 10° ENE
CZ-3A R/B 3.9 03:11:25 27° SW 03:19:22 71° SE 03:24:20 10° NE
IRS-1D 3.9 03:15:30 10° NNE 03:20:23 55° E 03:22:55 27° SSE
Cosmos 1378 3.8 03:16:42 10° N 03:20:25 53° E 03:22:06 29° SE
Cosmos 1513 Rocket 4.4 03:18:26 37° SSW 03:20:53 68° W 03:26:56 10° N
Cosmos 2298 Rocket 4.4 03:16:08 10° NNW 03:21:09 44° WSW 03:22:03 40° SW
BREEZE-M DEB (TANK) 3.8 03:19:22 24° WNW 03:21:18 44° NNW 03:24:52 10° ENE
Cosmos 1766 3.5 03:22:22 42° SSE 03:23:31 65° E 03:27:25 10° NNE
SAR-Lupe-3 4.3 03:27:02 59° S 03:27:38 88° W 03:31:09 10° NNW
Cosmos 1076 Rocket 3.7 03:23:29 10° N 03:27:49 68° E 03:30:20 24° SSE
Meteor 1-24 Rocket 3.7 03:27:00 10° NNW 03:32:44 76° W 03:36:35 23° S
ERS-2 2.4 03:29:34 10° N 03:33:13 51° WNW 03:33:47 46° WSW
NOSS 7 (E) 4.3 03:33:25 62° SSW 03:33:56 88° ESE 03:37:24 10° NE
Meteor 1-22 Rocket 4.4 03:30:52 29° SSW 03:34:12 86° W 03:40:22 10° N
GPS 2-04 Rocket1 3.8 03:36:56 28° SSE 03:36:56 28° SSE 03:39:44 10° ESE
UNKNOWN OBJECT B 3.9 03:33:53 10° NNE 03:37:35 40° E 03:39:51 20° SSE
SME Rocket 4.2 03:33:08 18° S 03:37:36 79° WSW 03:46:22 10° NNW
USA 161 2.2 03:40:01 41° WNW 03:40:01 41° WNW 03:42:11 10° NNW
SL-24 R/B 4.2 03:37:03 25° S 03:39:54 72° WSW 03:44:26 10° NNW
Cosmos 990 Rocket 4.0 03:35:18 10° NNW 03:40:31 65° WSW 03:44:12 19° S
NOSS 2-1 (D) 4.3 03:39:46 29° W 03:41:14 39° NW 03:45:34 10° NNE
NOSS 2-1 (C) 4.3 03:41:07 28° W 03:42:38 39° NW 03:46:59 10° NNE
Cosmos 1656 3.9 03:43:30 29° SW 03:46:17 59° WNW 03:51:54 10° NNE
Abrixas 2.8 03:44:06 15° WNW 03:46:31 65° NNE 03:49:34 10° ESE
Okean O Rocket 3.3 03:42:46 10° NE 03:46:36 28° E 03:50:24 10° SSE
Cosmos 1758 3.8 03:46:33 21° SSE 03:49:02 59° E 03:52:59 10° NNE
Cosmos 1441 Rocket 3.2 03:45:45 10° NNW 03:49:44 75° W 03:51:59 25° S
EO 1 Del DPAF 3.2 03:47:07 19° SSE 03:49:47 89° E 03:53:42 10° NNW
BREEZE-M DEB (TANK) 4.4 03:48:19 10° WNW 03:52:03 19° W 03:52:03 19° W
Cosmos 1953 2.5 03:51:07 22° S 03:53:36 70° E 03:57:40 10° NNE
Cosmos 1805 3.6 03:51:47 21° S 03:54:17 62° E 03:58:10 10° NNE
CZ-2D R/B 2.1 03:49:51 10° NNE 03:55:21 87° WNW 03:59:09 20° SSW
Cosmos 1707 4.2 03:52:39 10° NW 03:55:40 21° W 03:55:42 21° W
Cosmos-2242 3.1 03:53:00 22° S 03:55:47 78° E 04:00:05 10° N
Cosmos 1408 Rocket 3.6 03:55:31 10° NNW 03:59:49 56° W 04:02:30 22° SSW
Nadezhda 4 Rocket 4.2 03:55:10 10° NNW 04:01:06 50° W 04:05:36 18° SSW
SL-16 R/B 2.6 03:56:20 12° S 04:01:57 59° W 04:08:02 10° NNW
Cosmos 1766 Rocket 3.7 03:59:03 10° NNW 04:03:23 56° W 04:06:21 19° SSW
Cosmos 836 Rocket 4.5 04:00:48 22° SSW 04:04:14 84° WNW 04:09:32 10° NNE
MOS 1-B 4.4 03:58:45 10° NNE 04:04:36 89° ESE 04:09:28 15° SSW
In-Cosmos 22 4.0 04:03:33 10° NNW 04:08:50 77° W 04:14:07 10° S
Cosmos 1655 Rocket 4.3 04:02:38 10° N 04:09:04 74° E 04:15:27 10° SSE
NOSS 3-4 (A) 4.2 04:03:49 10° NW 04:10:19 42° WSW 04:17:10 10° S
NOSS 3-4 (C) 4.2 04:03:55 10° NW 04:10:28 42° WSW 04:17:21 10° S
Cosmos 1697 Rocket 3.1 04:08:37 21° SW 04:12:12 49° WNW 04:17:42 10° NNE
Cosmos 1544 3.5 04:09:19 13° S 04:12:30 60° E 04:16:07 10° NNE
Meteor 1-21 Rocket 4.3 04:06:58 10° N 04:12:55 88° W 04:18:51 10° S
Cosmos 1125 Rocket 3.4 04:08:04 10° NNW 04:13:18 80° WSW 04:18:29 10° SSE
Cosmos 841 Rocket 3.9 04:11:30 21° SW 04:14:49 50° WNW 04:19:58 10° N
GEOS 3 Rocket 3.7 04:13:09 10° SSE 04:18:15 54° WSW 04:23:20 10° NW
MTI 3.8 04:16:03 15° S 04:18:37 59° W 04:21:53 10° NNW
Cosmos 1980 Rocket 2.3 04:16:23 18° SW 04:20:34 68° WNW 04:26:15 10° NNE
Cosmos 1763 Rocket 4.2 04:17:33 19° WSW 04:20:51 39° WNW 04:25:44 10° N
Cosmos 1437 2.7 04:17:32 10° NNW 04:20:51 68° W 04:24:09 10° S
Cosmos 332 Rocket 4.0 04:19:33 12° S 04:23:58 73° ESE 04:28:49 10° NNE
Cosmos 2227 Rocket 4.0 04:22:28 10° WNW 04:24:22 12° W 04:24:42 12° W
CZ-3 R/B 4.1 04:04:24 16° SW 04:25:30 36° S 04:33:54 10° ESE
Cosmos 1842 Rocket 3.7 04:21:17 10° S 04:25:46 81° E 04:30:15 10° N
Milstar 3 Cent rocket 3.7 04:25:01 15° SW 04:28:04 23° S 04:34:16 10° SE
RESURS DK-1 2.5 04:24:05 10° NNW 04:28:14 77° ENE 04:32:22 10° SSE
ATLAS CENTAUR R/B 3.3 04:24:30 12° W 04:28:17 25° NW 04:32:25 10° NNE
Cosmos 1674 2.9 04:26:08 10° N 04:29:55 73° E 04:33:39 10° SSE
ARIANE 5 R/B 3.5 04:26:48 10° N 04:31:17 31° WNW 04:34:57 14° WSW
Cosmos 2026 Rocket 4.0 04:25:51 10° NNW 04:32:10 71° W 04:38:22 10° S
Cosmos 2322 Rocket 2.6 04:26:52 10° S 04:32:23 62° ESE 04:37:56 10° NNE
CZ-2D R/B 3.7 04:28:38 10° N 04:32:55 62° WNW 04:37:02 11° SSW
Resurs 1-4 Rocket 2.8 04:29:37 10° N 04:34:28 38° WNW 04:38:40 13° SW
Cosmos 1634 Rocket 4.4 04:33:41 12° SSW 04:39:21 48° WNW 04:45:28 10° N
BREEZE-M DEB (TANK) 2.7 04:37:01 10° WNW 04:39:47 63° NNE 04:45:11 10° E
Cosmos 1461 2.7 04:37:27 10° NW 04:41:35 68° WSW 04:45:31 10° SSE
Cosmos 371 Rocket 3.4 04:38:55 10° SSW 04:43:43 76° ESE 04:48:32 10° NNE
ISS -1.8 04:42:32 10° W 04:44:49 18° SW 04:47:06 10° S
Cosmos 2297 Rocket 4.0 04:44:19 10° W 04:45:37 11° W 04:46:58 10° WSW
Cosmos 540 Rocket 3.6 04:42:54 10° SSW 04:48:02 64° WNW 04:53:12 10° NNE
Cosmos 1470 2.8 04:47:02 10° SSW 04:50:56 68° W 04:54:55 10° N
PSLV R/B 4.1 04:50:13 10° N 04:53:57 48° WNW 04:57:34 10° SSW
Thor Agena Rocket 3.5 04:51:24 10° S 04:56:25 71° WSW 05:01:29 10° NNW
CZ-4B R/B 2.8 04:58:36 10° N 05:02:31 63° WNW 05:06:14 10° SSW
Cosmos 2151 3.0 04:58:58 10° NNW 05:03:18 75° W 05:07:34 10° S
USA 116 3.9 05:01:37 10° SSE 05:04:46 60° ENE 05:08:12 10° N
CZ-2C R/B 4.3 05:00:30 10° SSW 05:04:51 37° W 05:09:10 10° NNW
SL-16 R/B 2.3 05:00:07 10° SSW 05:05:47 78° WNW 05:11:30 10° NNE
Lacrosse 5 rocket 3.9 05:05:08 10° NNW 05:07:49 19° NNE 05:10:32 10° ENE
Cosmos 1538 Rocket 4.1 05:03:16 10° SSW 05:08:34 88° ESE 05:13:56 10° NNE
Cosmos 1500 Rocket 4.5 05:07:01 10° NNW 05:10:50 29° W 05:14:36 10° SSW
